Zurück zum Katalog

DELTA 1 DEB

AktivSSO
NORAD 21276·DEBRIS·🇺🇸 United States

Gestartet Jun 12, 1975 von Vandenberg Space Force Base

Loading…

Nächste Überflüge (nächste 24 Stunden)

TLE

AktuellSource: Space-Track

Epoche: Sep 14, 2026, 03:22 UTC

1 21276U 75052M   26257.14035714  .00000004  00000-0  93354-4 0  9996
2 21276  99.9937 154.4979 0045319 254.9749 269.1724 13.35586181723607

Verfolge DELTA 1 DEB in Echtzeit mit AllMySat

Download on the App Store